Location: ??????
(41.3164°N, 22.6615°E)
Time: 20:12:51
(UTC+00:00)

Hubble Space Telescope - Visible Passes

Search period start: 16 January 2022 00:00
Search period end: 26 January 2022 00:00
Orbit: 534 x 538 km, 28.5° (Epoch: 15 January)

Date Brightness Start Highest point End Pass type
(mag) Time Alt. Az. Time Alt. Az. Time Alt. Az.
16 Jan 3.2 04:09:32 11° SSW 04:11:00 12° S 04:12:46 10° SSE visible
17 Jan 3.2 03:58:57 11° SSW 03:59:38 12° S 04:01:05 10° SSE visible
18 Jan 3.3 03:48:22 11° S 03:48:22 11° S 03:49:06 10° S visible
